Hourly Weather Roundup
Issued by NWS Central Illinois

Home | Current Version | Previous Version | Text Only | Print | Product List | Glossary On
Versions: 1 2 3 4 5 6 7 8 9 10 11 12 13 14 15 16 17 18 19 20 21 22 23 24 25 26 27 28 29 30 31 32 33 34 35 36 37 38 39 40 41 42 43 44 45 46 47 48 49 50
000
NZUS43 KILX 282210
HWRILX

AREA WEATHER ROUNDUP
NATIONAL WEATHER SERVICE, LINCOLN IL
500 PM CDT THU AUG 28 2014


CITY           SKY/WX    TMP DP  RH WIND       PRES   REMARKS
BLOOMINGTON    MOSUNNY   81  69  66 E9        30.02F HX  84
CHAMPAIGN      SUNNY     83  69  62 E7        30.02S HX  86
DECATUR        PTSUNNY   85  74  69 E8        30.00S HX  92
FLORA          SUNNY     87  72  60 E3        29.98S HX  93
GALESBURG      CLOUDY    76  72  85 N15       30.00R
JACKSONVILLE   MOSUNNY   88  74  62 S7        29.98S HX  97
LACON          PTSUNNY   78  67  69 E6        30.00S HX  80
LAWRENCEVILLE  SUNNY     89  71  55 NE3       29.98F HX  95
LITCHFIELD     MOSUNNY   87  75  68 SE6       29.98S HX  96
$$


CITY           SKY/WX    TMP DP  RH WIND       PRES   REMARKS
LINCOLN        MOSUNNY   86  72  63 SE6       29.95F HX  92
MACOMB         CLOUDY    77  69  78 NW25G37   30.03R
MATTOON        SUNNY     85  71  63 SE6       29.99S HX  90
MT CARMEL AP   MOSUNNY   91  72  52 NE5       29.98S HX  98
OLNEY-NOBLE AP SUNNY     86  72  62 CALM      29.98S HX  92
PARIS          SUNNY     83  67  57 CALM      30.02S HX  86
PEORIA         PTSUNNY   82  70  66 E6        29.99F HX  86
PONTIAC        MOSUNNY   81  70  69 E6        30.02S HX  84
RANTOUL        MOSUNNY   85  65  51 E5        30.03R HX  87
ROBINSON       SUNNY     88  74  62 NE5       30.00S HX  96
SPRINGFIELD    PTSUNNY   86  74  67 SE6       29.97S HX  94
TAYLORVILLE    MOSUNNY  N/A N/A N/A SE6       29.98S
$$

...REGIONAL REPORTS...


CITY           SKY/WX    TMP DP  RH WIND       PRES   REMARKS
CHICAGO O`HARE PTSUNNY   73  56  54 NE12      30.06F
KANKAKEE       CLOUDY    80  63  56 E7        30.04S HX  81
MOLINE         LGT RAIN  69  66  90 E12       30.01F
MOUNT VERNON   PTSUNNY   79  70  73 SW10      30.00R HX  81
PITTSFIELD     MOSUNNY   89  72  58 S5        29.96F HX  95
QUINCY         PTSUNNY   86  73  65 NE7       29.95F HX  93
ROCKFORD       LGT RAIN  73  58  59 E8        30.06S
$$


CITY           SKY/WX    TMP DP  RH WIND       PRES   REMARKS
BURLINGTON     LGT RAIN  70  70 100 SE5       30.00F
CEDAR RAPIDS   CLOUDY    69  67  93 SE9       29.98S
DES MOINES     PTSUNNY   79  72  79 S10       29.91F HX  82
KIRKSVILLE     MOSUNNY   83  74  74 E7        29.95F HX  89
OTTUMWA        CLOUDY    73  69  87 E14       29.94F
ST LOUIS       MOSUNNY   90  71  53 SE9       29.95S HX  96
$$


CITY           SKY/WX    TMP DP  RH WIND       PRES   REMARKS
TERRE HAUTE    SUNNY     84  68  58 NE3       30.01S HX  87
EVANSVILLE     PTSUNNY   89  72  56 E3        29.98R THUNDER HX  96
INDIANAPOLIS   MOSUNNY   83  65  54 E7        30.02F HX  85
LAFAYETTE      SUNNY     80  65  59 E8        30.03S HX  82
MADISON        CLOUDY    74  60  61 E10       30.05S
MILWAUKEE      PTSUNNY   68  56  65 NE10      30.09F
$$





USA.gov is the U.S. government's official web portal to all federal, state and local government web resources and services.